| time (UTC) | temp F | wind direction | speed MPH | gust MPH | rain 1hr in | rain 24hr in | rain mn in | humidity % | barometer mb |
| 20260902102004 | 56 | 161 | 1.0 | 5.0 | 0.00 | 0.00 | 0.00 | 72 | 1018.8 |
| 20260902101503 | 56 | 161 | 2.0 | 5.0 | 0.00 | 0.00 | 0.00 | 72 | 1018.8 |
| 20260902100504 | 57 | 161 | 0.0 | 2.0 | 0.00 | 0.00 | 0.00 | 72 | 1018.9 |
| 20260902100006 | 57 | 161 | 0.0 | 3.0 | 0.00 | 0.00 | 0.00 | 71 | 1018.9 |
| 20260902100002 | 57 | 161 | 0.0 | 3.0 | 0.00 | 0.00 | 0.00 | 71 | 1003.8 |
| 20260902095504 | 57 | 161 | 0.0 | 3.0 | 0.00 | 0.00 | 0.00 | 72 | 1018.9 |
| 20260902095005 | 57 | 161 | 2.0 | 5.0 | 0.00 | 0.00 | 0.00 | 72 | 1018.8 |
| 20260902094505 | 57 | 161 | 1.0 | 3.0 | 0.00 | 0.00 | 0.00 | 72 | 1018.8 |
| 20260902094503 | 57 | 161 | 1.0 | 3.0 | 0.00 | 0.00 | 0.00 | 72 | 1003.6 |
| 20260902094004 | 58 | 161 | 1.0 | 3.0 | 0.00 | 0.00 | 0.00 | 71 | 1018.8 |
| 20260902093503 | 58 | 161 | 2.0 | 5.0 | 0.00 | 0.00 | 0.00 | 70 | 1018.8 |
| 20260902093006 | 58 | 161 | 3.0 | 5.0 | 0.00 | 0.00 | 0.00 | 70 | 1018.8 |
| 20260902093002 | 58 | 161 | 2.0 | 5.0 | 0.00 | 0.00 | 0.00 | 70 | 1003.6 |
| 20260902092504 | 59 | 161 | 3.0 | 5.0 | 0.00 | 0.00 | 0.00 | 69 | 1018.8 |
| 20260902091503 | 59 | 161 | 3.0 | 5.0 | 0.00 | 0.00 | 0.00 | 69 | 1018.7 |
| 20260902091006 | 58 | 161 | 4.0 | 5.0 | 0.00 | 0.00 | 0.00 | 70 | 1018.7 |
| 20260902090504 | 58 | 161 | 3.0 | 3.0 | 0.00 | 0.00 | 0.00 | 71 | 1018.8 |
| 20260902090006 | 58 | 161 | 2.0 | 4.0 | 0.00 | 0.00 | 0.00 | 71 | 1018.8 |
| 20260902090002 | 58 | 161 | 1.0 | 4.0 | 0.00 | 0.00 | 0.00 | 71 | 1003.7 |
| 20260902085503 | 58 | 161 | 2.0 | 3.0 | 0.00 | 0.00 | 0.00 | 72 | 1018.8 |
| 20260902085005 | 58 | 161 | 1.0 | 3.0 | 0.00 | 0.00 | 0.00 | 73 | 1018.8 |
| 20260902084602 | 59 | 161 | 2.0 | 3.0 | 0.00 | 0.00 | 0.00 | 71 | 1003.7 |
| 20260902084500 | 59 | 161 | 2.0 | 4.0 | 0.00 | 0.00 | 0.00 | 71 | 1018.8 |
| 20260902084005 | 59 | 161 | 0.0 | 6.0 | 0.00 | 0.00 | 0.00 | 72 | 1018.8 |
| 20260902083503 | 59 | 161 | 5.0 | 6.0 | 0.00 | 0.00 | 0.00 | 72 | 1018.8 |
| 20260902083001 | 59 | 161 | 3.0 | 5.0 | 0.00 | 0.00 | 0.00 | 72 | 1003.7 |
| 20260902082503 | 59 | 161 | 2.0 | 5.0 | 0.00 | 0.00 | 0.00 | 71 | 1018.8 |
| 20260902082005 | 59 | 161 | 3.0 | 4.0 | 0.00 | 0.00 | 0.00 | 72 | 1018.8 |
| 20260902081504 | 59 | 161 | 1.0 | 5.0 | 0.00 | 0.00 | 0.00 | 72 | 1018.8 |
| 20260902081005 | 59 | 161 | 2.0 | 5.0 | 0.00 | 0.00 | 0.00 | 72 | 1018.9 |
| 20260902080503 | 59 | 161 | 3.0 | 5.0 | 0.00 | 0.00 | 0.00 | 72 | 1018.9 |
| 20260902080007 | 59 | 161 | 2.0 | 3.0 | 0.00 | 0.00 | 0.00 | 72 | 1019.0 |
| 20260902080002 | 59 | 161 | 1.0 | 3.0 | 0.00 | 0.00 | 0.00 | 72 | 1003.9 |
| 20260902075504 | 59 | 161 | 2.0 | 2.0 | 0.00 | 0.00 | 0.00 | 71 | 1019.0 |
| 20260902075005 | 60 | 161 | 1.0 | 3.0 | 0.00 | 0.00 | 0.00 | 71 | 1019.1 |
| 20260902074503 | 59 | 161 | 2.0 | 3.0 | 0.00 | 0.00 | 0.00 | 72 | 1019.1 |
| 20260902074004 | 59 | 161 | 2.0 | 3.0 | 0.00 | 0.00 | 0.00 | 73 | 1019.2 |
| 20260902073503 | 59 | 161 | 2.0 | 4.0 | 0.00 | 0.00 | 0.00 | 73 | 1019.2 |
| 20260902073005 | 60 | 161 | 2.0 | 5.0 | 0.00 | 0.00 | 0.00 | 72 | 1019.2 |
| 20260902073002 | 60 | 161 | 1.0 | 5.0 | 0.00 | 0.00 | 0.00 | 72 | 1004.0 |
| 20260902072504 | 60 | 161 | 1.0 | 5.0 | 0.00 | 0.00 | 0.00 | 71 | 1019.1 |
| 20260902072005 | 61 | 161 | 1.0 | 6.0 | 0.00 | 0.00 | 0.00 | 71 | 1019.1 |
| 20260902071508 | 60 | 161 | 2.0 | 8.0 | 0.00 | 0.00 | 0.00 | 71 | 1004.0 |
| 20260902071504 | 60 | 161 | 2.0 | 8.0 | 0.00 | 0.00 | 0.00 | 71 | 1019.2 |
| 20260902071004 | 60 | 158 | 6.0 | 8.0 | 0.00 | 0.00 | 0.00 | 71 | 1019.3 |
| 20260902070504 | 61 | 180 | 2.0 | 5.0 | 0.00 | 0.00 | 0.00 | 70 | 1019.2 |
| 20260902070007 | 61 | 180 | 1.0 | 9.0 | 0.00 | 0.00 | 0.00 | 68 | 1019.1 |
| 20260902070003 | 61 | 180 | 1.0 | 9.0 | 0.00 | 0.00 | 0.00 | 68 | 1004.0 |
| 20260902065004 | 62 | 188 | 5.0 | 7.0 | 0.00 | 0.00 | 0.00 | 68 | 1019.3 |
| 20260902064505 | 62 | 175 | 4.0 | 6.0 | 0.00 | 0.00 | 0.00 | 68 | 1019.3 |
| 20260902064503 | 62 | 175 | 3.0 | 6.0 | 0.00 | 0.00 | 0.00 | 68 | 1004.1 |
| 20260902064004 | 62 | 151 | 3.0 | 6.0 | 0.00 | 0.00 | 0.00 | 68 | 1019.1 |
| 20260902063504 | 62 | 209 | 3.0 | 4.0 | 0.00 | 0.00 | 0.00 | 69 | 1019.0 |
| 20260902063005 | 62 | 209 | 2.0 | 3.0 | 0.00 | 0.00 | 0.00 | 68 | 1018.9 |
| 20260902063002 | 62 | 209 | 1.0 | 3.0 | 0.00 | 0.00 | 0.00 | 68 | 1003.8 |
| 20260902062504 | 62 | 209 | 1.0 | 4.0 | 0.00 | 0.00 | 0.00 | 67 | 1019.0 |
| 20260902062005 | 62 | 209 | 2.0 | 5.0 | 0.00 | 0.00 | 0.00 | 67 | 1018.9 |
| 20260902061503 | 63 | 198 | 2.0 | 7.0 | 0.00 | 0.00 | 0.00 | 67 | 1019.0 |
| 20260902060504 | 63 | 215 | 4.0 | 8.0 | 0.00 | 0.00 | 0.00 | 67 | 1018.8 |
| 20260902060003 | 63 | 239 | 2.0 | 8.0 | 0.00 | 0.00 | 0.00 | 67 | 1003.8 |
| 20260902055504 | 63 | 245 | 2.0 | 7.0 | 0.00 | 0.00 | 0.00 | 66 | 1019.0 |
| 20260902055006 | 64 | 244 | 2.0 | 4.0 | 0.00 | 0.00 | 0.00 | 64 | 1019.1 |
| 20260902054505 | 64 | 244 | 2.0 | 7.0 | 0.00 | 0.00 | 0.00 | 63 | 1019.0 |
| 20260902054502 | 64 | 244 | 2.0 | 7.0 | 0.00 | 0.00 | 0.00 | 63 | 1003.8 |
| 20260902054004 | 64 | 189 | 3.0 | 7.0 | 0.00 | 0.00 | 0.00 | 63 | 1019.0 |
| 20260902053504 | 64 | 211 | 4.0 | 7.0 | 0.00 | 0.00 | 0.00 | 63 | 1019.1 |
| 20260902053005 | 65 | 180 | 3.0 | 9.0 | 0.00 | 0.00 | 0.00 | 62 | 1019.0 |
| 20260902053003 | 65 | 180 | 3.0 | 9.0 | 0.00 | 0.00 | 0.00 | 62 | 1003.9 |
| 20260902052006 | 66 | 181 | 4.0 | 10.0 | 0.00 | 0.00 | 0.00 | 61 | 1018.8 |
| 20260902051505 | 66 | 209 | 5.0 | 10.0 | 0.00 | 0.00 | 0.00 | 61 | 1018.8 |
| 20260902051502 | 66 | 209 | 4.0 | 10.0 | 0.00 | 0.00 | 0.00 | 61 | 1003.7 |
| 20260902051007 | 66 | 193 | 5.0 | 10.0 | 0.00 | 0.00 | 0.00 | 61 | 1018.8 |
| 20260902050505 | 66 | 180 | 6.0 | 12.0 | 0.00 | 0.00 | 0.00 | 60 | 1018.8 |
| 20260902050009 | 66 | 199 | 5.0 | 12.0 | 0.00 | 0.00 | 0.00 | 60 | 1003.8 |
| 20260902044504 | 67 | 183 | 8.0 | 14.0 | 0.00 | 0.00 | 0.00 | 59 | 1019.0 |
| 20260902044502 | 67 | 183 | 8.0 | 14.0 | 0.00 | 0.00 | 0.00 | 59 | 1004.0 |
| 20260902044006 | 67 | 171 | 8.0 | 14.0 | 0.00 | 0.00 | 0.00 | 59 | 1019.1 |
| 20260902043007 | 67 | 171 | 8.0 | 14.0 | 0.00 | 0.00 | 0.00 | 59 | 1004.4 |
| 20260902042506 | 67 | 183 | 9.0 | 12.0 | 0.00 | 0.00 | 0.00 | 59 | 1019.3 |
| 20260902042006 | 66 | 157 | 7.0 | 9.0 | 0.00 | 0.00 | 0.00 | 58 | 1019.4 |
| 20260902041505 | 66 | 158 | 6.0 | 10.0 | 0.00 | 0.00 | 0.00 | 58 | 1019.4 |
| 20260902041502 | 66 | 158 | 6.0 | 10.0 | 0.00 | 0.00 | 0.00 | 58 | 1004.6 |
| 20260902041006 | 66 | 178 | 6.0 | 9.0 | 0.00 | 0.00 | 0.00 | 57 | 1019.4 |
| 20260902040006 | 66 | 146 | 6.0 | 9.0 | 0.00 | 0.00 | 0.00 | 57 | 1019.5 |
| 20260902040003 | 66 | 146 | 5.0 | 9.0 | 0.00 | 0.00 | 0.00 | 57 | 1004.8 |
| 20260902035504 | 66 | 157 | 7.0 | 9.0 | 0.00 | 0.00 | 0.00 | 57 | 1019.4 |
| 20260902035005 | 67 | 179 | 6.0 | 8.0 | 0.00 | 0.00 | 0.00 | 57 | 1019.5 |
| 20260902034603 | 67 | 183 | 5.0 | 9.0 | 0.00 | 0.00 | 0.00 | 57 | 1004.7 |
| 20260902034501 | 67 | 161 | 5.0 | 9.0 | 0.00 | 0.00 | 0.00 | 57 | 1019.4 |
| 20260902033505 | 67 | 188 | 6.0 | 8.0 | 0.00 | 0.00 | 0.00 | 56 | 1019.4 |
| 20260902033004 | 67 | 144 | 4.0 | 9.0 | 0.00 | 0.00 | 0.00 | 56 | 1004.6 |
| 20260902032505 | 67 | 177 | 6.0 | 10.0 | 0.00 | 0.00 | 0.00 | 56 | 1019.3 |
| 20260902032006 | 68 | 185 | 7.0 | 10.0 | 0.00 | 0.00 | 0.00 | 55 | 1019.4 |
| 20260902031505 | 67 | 180 | 7.0 | 10.0 | 0.00 | 0.00 | 0.00 | 56 | 1019.4 |
| 20260902031503 | 67 | 180 | 7.0 | 10.0 | 0.00 | 0.00 | 0.00 | 56 | 1004.7 |
| 20260902031007 | 67 | 155 | 6.0 | 10.0 | 0.00 | 0.00 | 0.00 | 56 | 1019.3 |
| 20260902030003 | 67 | 169 | 5.0 | 8.0 | 0.00 | 0.00 | 0.00 | 55 | 1004.6 |
| 20260902025504 | 67 | 172 | 5.0 | 8.0 | 0.00 | 0.00 | 0.00 | 55 | 1019.2 |
| 20260902025006 | 67 | 153 | 6.0 | 7.0 | 0.00 | 0.00 | 0.00 | 55 | 1019.1 |
| 20260902024505 | 67 | 177 | 5.0 | 8.0 | 0.00 | 0.00 | 0.00 | 55 | 1019.0 |
| 20260902024502 | 67 | 177 | 5.0 | 8.0 | 0.00 | 0.00 | 0.00 | 55 | 1004.3 |
| 20260902023504 | 67 | 154 | 5.0 | 9.0 | 0.00 | 0.00 | 0.00 | 52 | 1018.7 |
| 20260902023005 | 68 | 146 | 5.0 | 9.0 | 0.00 | 0.00 | 0.00 | 51 | 1018.6 |
| 20260902023003 | 68 | 146 | 5.0 | 9.0 | 0.00 | 0.00 | 0.00 | 51 | 1003.9 |
| 20260902022504 | 70 | 136 | 5.0 | 9.0 | 0.00 | 0.00 | 0.00 | 49 | 1018.6 |
| 20260902021504 | 71 | 174 | 6.0 | 12.0 | 0.00 | 0.00 | 0.00 | 45 | 1018.4 |
| 20260902021502 | 71 | 173 | 5.0 | 12.0 | 0.00 | 0.00 | 0.00 | 45 | 1003.7 |
| 20260902021005 | 71 | 173 | 8.0 | 12.0 | 0.00 | 0.00 | 0.00 | 44 | 1018.4 |
| 20260902020504 | 71 | 150 | 6.0 | 8.0 | 0.00 | 0.00 | 0.00 | 44 | 1018.2 |
| 20260902020006 | 71 | 157 | 5.0 | 7.0 | 0.00 | 0.00 | 0.00 | 44 | 1018.1 |
| 20260902015505 | 71 | 147 | 4.0 | 7.0 | 0.00 | 0.00 | 0.00 | 44 | 1018.1 |
| 20260902015005 | 71 | 148 | 4.0 | 5.0 | 0.00 | 0.00 | 0.00 | 43 | 1018.1 |
| 20260902014504 | 71 | 147 | 4.0 | 7.0 | 0.00 | 0.00 | 0.00 | 43 | 1018.0 |
| 20260902014502 | 71 | 147 | 3.0 | 7.0 | 0.00 | 0.00 | 0.00 | 43 | 1003.3 |
| 20260902014007 | 72 | 147 | 4.0 | 7.0 | 0.00 | 0.00 | 0.00 | 43 | 1018.0 |
| 20260902013504 | 72 | 162 | 4.0 | 6.0 | 0.00 | 0.00 | 0.00 | 42 | 1017.9 |
| 20260902013006 | 72 | 174 | 4.0 | 6.0 | 0.00 | 0.00 | 0.00 | 42 | 1018.0 |
| 20260902013003 | 72 | 174 | 4.0 | 6.0 | 0.00 | 0.00 | 0.00 | 42 | 1003.2 |
| 20260902012505 | 72 | 147 | 4.0 | 7.0 | 0.00 | 0.00 | 0.00 | 43 | 1018.0 |
| 20260902012006 | 73 | 147 | 5.0 | 7.0 | 0.00 | 0.00 | 0.00 | 42 | 1018.0 |
| 20260902011505 | 73 | 128 | 4.0 | 7.0 | 0.00 | 0.00 | 0.00 | 43 | 1018.0 |
| 20260902011503 | 73 | 128 | 4.0 | 7.0 | 0.00 | 0.00 | 0.00 | 43 | 1003.2 |
| 20260902011005 | 74 | 128 | 5.0 | 9.0 | 0.00 | 0.00 | 0.00 | 42 | 1018.0 |
| 20260902010505 | 75 | 110 | 6.0 | 9.0 | 0.00 | 0.00 | 0.00 | 40 | 1017.9 |
| 20260902010006 | 76 | 101 | 4.0 | 7.0 | 0.00 | 0.00 | 0.00 | 39 | 1017.8 |
| 20260902005505 | 76 | 109 | 5.0 | 8.0 | 0.00 | 0.00 | 0.00 | 38 | 1017.8 |
| 20260902005005 | 76 | 111 | 5.0 | 8.0 | 0.00 | 0.00 | 0.00 | 38 | 1017.9 |
| 20260902004505 | 76 | 69 | 3.0 | 9.0 | 0.00 | 0.00 | 0.00 | 40 | 1017.9 |
| 20260902004503 | 76 | 69 | 2.0 | 9.0 | 0.00 | 0.00 | 0.00 | 40 | 1003.2 |
| 20260902004007 | 76 | 59 | 5.0 | 10.0 | 0.00 | 0.00 | 0.00 | 40 | 1017.8 |
| 20260902003505 | 76 | 64 | 6.0 | 10.0 | 0.00 | 0.00 | 0.00 | 40 | 1017.7 |
| 20260902003007 | 76 | 61 | 5.0 | 11.0 | 0.00 | 0.00 | 0.00 | 41 | 1017.8 |
| 20260902003004 | 76 | 61 | 4.0 | 11.0 | 0.00 | 0.00 | 0.00 | 41 | 1003.2 |
| 20260902002505 | 76 | 75 | 7.0 | 11.0 | 0.00 | 0.00 | 0.00 | 40 | 1017.8 |
| 20260902001506 | 76 | 50 | 5.0 | 12.0 | 0.00 | 0.00 | 0.00 | 39 | 1003.2 |
| 20260902001005 | 77 | 49 | 9.0 | 13.0 | 0.00 | 0.00 | 0.00 | 37 | 1017.9 |
| 20260902000504 | 77 | 65 | 10.0 | 13.0 | 0.00 | 0.00 | 0.00 | 36 | 1017.8 |
| 20260902000006 | 76 | 46 | 6.0 | 10.0 | 0.00 | 0.00 | 0.00 | 36 | 1017.9 |
| 20260902000004 | 76 | 46 | 5.0 | 10.0 | 0.00 | 0.00 | 0.00 | 36 | 1003.3 |
| 20260901235506 | 77 | 56 | 5.0 | 11.0 | 0.00 | 0.00 | 0.00 | 37 | 1017.8 |
| 20260901235006 | 77 | 27 | 4.0 | 10.0 | 0.00 | 0.00 | 0.00 | 35 | 1017.8 |
| 20260901234507 | 77 | 38 | 4.0 | 7.0 | 0.00 | 0.00 | 0.00 | 35 | 1017.9 |
| 20260901234503 | 77 | 38 | 4.0 | 7.0 | 0.00 | 0.00 | 0.00 | 35 | 1003.3 |
| 20260901233504 | 78 | 37 | 3.0 | 5.0 | 0.00 | 0.00 | 0.00 | 33 | 1017.8 |
| 20260901233005 | 78 | 79 | 3.0 | 7.0 | 0.00 | 0.00 | 0.00 | 33 | 1017.8 |
| 20260901233002 | 78 | 79 | 2.0 | 7.0 | 0.00 | 0.00 | 0.00 | 33 | 1003.2 |
| 20260901232002 | 78 | 122 | 6.0 | 11.0 | 0.00 | 0.00 | 0.00 | 30 | 1017.8 |
| 20260901231558 | 78 | 123 | 4.0 | 10.0 | 0.00 | 0.00 | 0.00 | 32 | 1003.3 |
| 20260901231005 | 78 | 119 | 7.0 | 11.0 | 0.00 | 0.00 | 0.00 | 31 | 1017.9 |
| 20260901230006 | 79 | 134 | 8.0 | 12.0 | 0.00 | 0.00 | 0.00 | 30 | 1017.9 |
| 20260901230003 | 79 | 134 | 8.0 | 12.0 | 0.00 | 0.00 | 0.00 | 30 | 1003.4 |
| 20260901225004 | 79 | 120 | 8.0 | 14.0 | 0.00 | 0.00 | 0.00 | 30 | 1017.9 |
| 20260901224506 | 79 | 142 | 10.0 | 13.0 | 0.00 | 0.00 | 0.00 | 30 | 1017.9 |
| 20260901224503 | 79 | 142 | 9.0 | 13.0 | 0.00 | 0.00 | 0.00 | 30 | 1003.4 |
| 20260901224006 | 80 | 133 | 9.0 | 14.0 | 0.00 | 0.00 | 0.00 | 30 | 1017.9 |
| 20260901223505 | 81 | 133 | 7.0 | 14.0 | 0.00 | 0.00 | 0.00 | 29 | 1018.0 |
| 20260901223004 | 81 | 44 | 3.0 | 9.0 | 0.00 | 0.00 | 0.00 | 26 | 1003.5 |
| 20260901222006 | 81 | 171 | 6.0 | 9.0 | 0.00 | 0.00 | 0.00 | 26 | 1018.1 |
| 20260901221503 | 81 | 175 | 5.0 | 9.0 | 0.00 | 0.00 | 0.00 | 26 | 1003.6 |
| 20260901221005 | 81 | 304 | 4.0 | 6.0 | 0.00 | 0.00 | 0.00 | 26 | 1018.2 |
| 20260901220009 | 80 | 224 | 1.0 | 9.0 | 0.00 | 0.00 | 0.00 | 27 | 1018.2 |
| 20260901220003 | 80 | 224 | 0.0 | 9.0 | 0.00 | 0.00 | 0.00 | 27 | 1003.7 |
| 20260901215506 | 80 | 224 | 1.0 | 16.0 | 0.00 | 0.00 | 0.00 | 27 | 1018.3 |
| 20260901215005 | 80 | 150 | 6.0 | 16.0 | 0.00 | 0.00 | 0.00 | 27 | 1018.4 |
| 20260901214505 | 81 | 190 | 6.0 | 11.0 | 0.00 | 0.00 | 0.00 | 26 | 1018.4 |
| 20260901214503 | 81 | 190 | 5.0 | 11.0 | 0.00 | 0.00 | 0.00 | 26 | 1004.0 |
| 20260901213504 | 81 | 182 | 9.0 | 17.0 | 0.00 | 0.00 | 0.00 | 27 | 1018.5 |
| 20260901213006 | 82 | 132 | 8.0 | 17.0 | 0.00 | 0.00 | 0.00 | 25 | 1018.5 |
| 20260901213004 | 82 | 132 | 8.0 | 17.0 | 0.00 | 0.00 | 0.00 | 25 | 1004.1 |
| 20260901212506 | 82 | 305 | 4.0 | 10.0 | 0.00 | 0.00 | 0.00 | 25 | 1018.5 |
| 20260901211505 | 81 | 201 | 5.0 | 10.0 | 0.00 | 0.00 | 0.00 | 28 | 1018.6 |
| 20260901211503 | 81 | 201 | 4.0 | 10.0 | 0.00 | 0.00 | 0.00 | 28 | 1004.2 |
| 20260901211006 | 81 | 254 | 3.0 | 8.0 | 0.00 | 0.00 | 0.00 | 26 | 1018.8 |
| 20260901210007 | 81 | 118 | 6.0 | 10.0 | 0.00 | 0.00 | 0.00 | 27 | 1019.0 |
| 20260901210003 | 81 | 118 | 5.0 | 10.0 | 0.00 | 0.00 | 0.00 | 27 | 1004.5 |
| 20260901205505 | 81 | 164 | 5.0 | 10.0 | 0.00 | 0.00 | 0.00 | 26 | 1019.0 |
| 20260901204504 | 81 | 238 | 5.0 | 10.0 | 0.00 | 0.00 | 0.00 | 27 | 1019.1 |
| 20260901204502 | 81 | 238 | 4.0 | 10.0 | 0.00 | 0.00 | 0.00 | 27 | 1004.7 |
| 20260901204006 | 80 | 257 | 5.0 | 11.0 | 0.00 | 0.00 | 0.00 | 25 | 1019.1 |
| 20260901203510 | 80 | 152 | 8.0 | 11.0 | 0.00 | 0.00 | 0.00 | 27 | 1019.2 |
| 20260901203009 | 80 | 203 | 5.0 | 10.0 | 0.00 | 0.00 | 0.00 | 27 | 1019.4 |
| 20260901203004 | 80 | 203 | 5.0 | 10.0 | 0.00 | 0.00 | 0.00 | 27 | 1004.9 |
| 20260901202505 | 79 | 306 | 2.0 | 8.0 | 0.00 | 0.00 | 0.00 | 28 | 1019.4 |
| 20260901202006 | 79 | 314 | 4.0 | 10.0 | 0.00 | 0.00 | 0.00 | 28 | 1019.4 |
| 20260901201508 | 79 | 201 | 6.0 | 10.0 | 0.00 | 0.00 | 0.00 | 27 | 1005.0 |
| 20260901201005 | 79 | 227 | 4.0 | 10.0 | 0.00 | 0.00 | 0.00 | 28 | 1019.5 |
| 20260901200504 | 78 | 149 | 4.0 | 10.0 | 0.00 | 0.00 | 0.00 | 31 | 1019.5 |
| 20260901200009 | 77 | 163 | 2.0 | 6.0 | 0.00 | 0.00 | 0.00 | 30 | 1005.2 |
| 20260901195505 | 77 | 187 | 2.0 | 7.0 | 0.00 | 0.00 | 0.00 | 28 | 1019.7 |
| 20260901195005 | 77 | 9 | 2.0 | 11.0 | 0.00 | 0.00 | 0.00 | 27 | 1019.7 |
| 20260901194505 | 78 | 10 | 6.0 | 14.0 | 0.00 | 0.00 | 0.00 | 27 | 1019.8 |
| 20260901194006 | 79 | 298 | 7.0 | 14.0 | 0.00 | 0.00 | 0.00 | 28 | 1019.6 |
| 20260901193504 | 79 | 248 | 5.0 | 9.0 | 0.00 | 0.00 | 0.00 | 28 | 1019.9 |
| 20260901193006 | 78 | 307 | 5.0 | 9.0 | 0.00 | 0.00 | 0.00 | 28 | 1019.9 |
| 20260901193004 | 78 | 307 | 4.0 | 9.0 | 0.00 | 0.00 | 0.00 | 28 | 1005.4 |
| 20260901192504 | 78 | 295 | 5.0 | 12.0 | 0.00 | 0.00 | 0.00 | 32 | 1019.9 |
| 20260901192006 | 77 | 281 | 6.0 | 13.0 | 0.00 | 0.00 | 0.00 | 30 | 1019.9 |
| 20260901191504 | 78 | 225 | 6.0 | 24.0 | 0.00 | 0.00 | 0.00 | 30 | 1020.0 |
| 20260901191502 | 78 | 225 | 6.0 | 24.0 | 0.00 | 0.00 | 0.00 | 30 | 1005.5 |
| 20260901191006 | 78 | 269 | 10.0 | 24.0 | 0.00 | 0.00 | 0.00 | 32 | 1019.9 |
| 20260901190004 | 77 | 173 | 4.0 | 11.0 | 0.00 | 0.00 | 0.00 | 31 | 1005.4 |
| 20260901185005 | 77 | 290 | 4.0 | 12.0 | 0.00 | 0.00 | 0.00 | 32 | 1020.2 |
| 20260901184505 | 76 | 261 | 4.0 | 12.0 | 0.00 | 0.00 | 0.00 | 32 | 1020.4 |
| 20260901184503 | 76 | 261 | 3.0 | 12.0 | 0.00 | 0.00 | 0.00 | 32 | 1005.9 |
| 20260901184006 | 77 | 291 | 5.0 | 12.0 | 0.00 | 0.00 | 0.00 | 31 | 1020.5 |
| 20260901183504 | 77 | 264 | 7.0 | 14.0 | 0.00 | 0.00 | 0.00 | 32 | 1020.5 |
| 20260901183006 | 77 | 284 | 8.0 | 14.0 | 0.00 | 0.00 | 0.00 | 32 | 1020.5 |
| 20260901183002 | 77 | 284 | 8.0 | 14.0 | 0.00 | 0.00 | 0.00 | 32 | 1005.9 |
| 20260901182506 | 77 | 198 | 2.0 | 6.0 | 0.00 | 0.00 | 0.00 | 35 | 1020.5 |
| 20260901182006 | 76 | 304 | 1.0 | 6.0 | 0.00 | 0.00 | 0.00 | 33 | 1020.6 |
| 20260901181505 | 76 | 55 | 1.0 | 5.0 | 0.00 | 0.00 | 0.00 | 32 | 1020.7 |
| 20260901181007 | 76 | 300 | 3.0 | 8.0 | 0.00 | 0.00 | 0.00 | 32 | 1020.7 |
| 20260901180505 | 75 | 5 | 4.0 | 9.0 | 0.00 | 0.00 | 0.00 | 35 | 1020.8 |
| 20260901180007 | 75 | 319 | 5.0 | 10.0 | 0.00 | 0.00 | 0.00 | 35 | 1021.0 |
| 20260901180003 | 75 | 319 | 4.0 | 10.0 | 0.00 | 0.00 | 0.00 | 35 | 1006.3 |
| 20260901175504 | 75 | 303 | 4.0 | 11.0 | 0.00 | 0.00 | 0.00 | 34 | 1021.0 |
| 20260901175007 | 75 | 248 | 5.0 | 9.0 | 0.00 | 0.00 | 0.00 | 37 | 1021.0 |
| 20260901174513 | 74 | 333 | 3.0 | 9.0 | 0.00 | 0.00 | 0.00 | 40 | 1006.4 |
| 20260901174506 | 74 | 333 | 4.0 | 9.0 | 0.00 | 0.00 | 0.00 | 40 | 1021.0 |
| 20260901174008 | 73 | 244 | 3.0 | 9.0 | 0.00 | 0.00 | 0.00 | 45 | 1021.1 |
| 20260901173005 | 72 | 265 | 5.0 | 10.0 | 0.00 | 0.00 | 0.00 | 45 | 1021.2 |
| 20260901173003 | 72 | 265 | 5.0 | 10.0 | 0.00 | 0.00 | 0.00 | 45 | 1006.6 |
| 20260901172504 | 72 | 275 | 3.0 | 10.0 | 0.00 | 0.00 | 0.00 | 45 | 1021.3 |
| 20260901172006 | 71 | 246 | 4.0 | 10.0 | 0.00 | 0.00 | 0.00 | 49 | 1021.4 |
| 20260901171502 | 71 | 222 | 3.0 | 8.0 | 0.00 | 0.00 | 0.00 | 48 | 1006.9 |
| 20260901171005 | 71 | 284 | 4.0 | 8.0 | 0.00 | 0.00 | 0.00 | 47 | 1021.6 |
| 20260901170505 | 71 | 244 | 4.0 | 8.0 | 0.00 | 0.00 | 0.00 | 47 | 1021.6 |
| 20260901170007 | 71 | 250 | 3.0 | 9.0 | 0.00 | 0.00 | 0.00 | 48 | 1021.6 |
| 20260901170003 | 71 | 250 | 3.0 | 9.0 | 0.00 | 0.00 | 0.00 | 48 | 1006.9 |
| 20260901165505 | 70 | 284 | 3.0 | 13.0 | 0.00 | 0.00 | 0.00 | 51 | 1021.7 |
| 20260901165005 | 70 | 282 | 5.0 | 13.0 | 0.00 | 0.00 | 0.00 | 51 | 1021.7 |
| 20260901164504 | 69 | 281 | 4.0 | 11.0 | 0.00 | 0.00 | 0.00 | 51 | 1021.8 |
| 20260901164502 | 69 | 281 | 4.0 | 11.0 | 0.00 | 0.00 | 0.00 | 51 | 1007.1 |
| 20260901164010 | 69 | 306 | 5.0 | 9.0 | 0.00 | 0.00 | 0.00 | 52 | 1021.8 |
| 20260901163505 | 68 | 255 | 3.0 | 8.0 | 0.00 | 0.00 | 0.00 | 54 | 1021.7 |
| 20260901163007 | 68 | 260 | 3.0 | 5.0 | 0.00 | 0.00 | 0.00 | 54 | 1021.7 |
| 20260901163004 | 68 | 260 | 2.0 | 5.0 | 0.00 | 0.00 | 0.00 | 54 | 1007.0 |
| 20260901162505 | 68 | 270 | 2.0 | 8.0 | 0.00 | 0.00 | 0.00 | 54 | 1021.6 |
| 20260901162007 | 67 | 270 | 3.0 | 11.0 | 0.00 | 0.00 | 0.00 | 55 | 1021.7 |
| 20260901161506 | 67 | 242 | 5.0 | 10.0 | 0.00 | 0.00 | 0.00 | 54 | 1021.6 |
| 20260901161502 | 67 | 242 | 4.0 | 10.0 | 0.00 | 0.00 | 0.00 | 54 | 1006.9 |
| 20260901161005 | 67 | 246 | 4.0 | 10.0 | 0.00 | 0.00 | 0.00 | 55 | 1021.4 |
| 20260901160507 | 67 | 251 | 3.0 | 8.0 | 0.00 | 0.00 | 0.00 | 55 | 1021.4 |
| 20260901160006 | 66 | 263 | 3.0 | 9.0 | 0.00 | 0.00 | 0.00 | 55 | 1021.3 |
| 20260901155505 | 66 | 281 | 5.0 | 11.0 | 0.00 | 0.00 | 0.00 | 56 | 1021.3 |
| 20260901155005 | 66 | 283 | 5.0 | 11.0 | 0.00 | 0.00 | 0.00 | 56 | 1021.3 |
| 20260901154505 | 66 | 245 | 4.0 | 11.0 | 0.00 | 0.00 | 0.00 | 57 | 1021.2 |
| 20260901154502 | 66 | 245 | 3.0 | 11.0 | 0.00 | 0.00 | 0.00 | 57 | 1006.6 |
| 20260901153005 | 66 | 293 | 3.0 | 9.0 | 0.00 | 0.00 | 0.00 | 57 | 1021.1 |
| 20260901153002 | 66 | 293 | 3.0 | 9.0 | 0.00 | 0.00 | 0.00 | 57 | 1006.4 |
| 20260901152005 | 66 | 215 | 3.0 | 11.0 | 0.00 | 0.00 | 0.00 | 58 | 1021.1 |
| 20260901151504 | 66 | 301 | 5.0 | 12.0 | 0.00 | 0.00 | 0.00 | 57 | 1021.1 |
| 20260901151501 | 66 | 301 | 5.0 | 12.0 | 0.00 | 0.00 | 0.00 | 57 | 1006.4 |
| 20260901151006 | 66 | 262 | 6.0 | 12.0 | 0.00 | 0.00 | 0.00 | 57 | 1021.0 |
| 20260901150505 | 66 | 210 | 5.0 | 12.0 | 0.00 | 0.00 | 0.00 | 58 | 1020.8 |
| 20260901150008 | 65 | 252 | 5.0 | 12.0 | 0.00 | 0.00 | 0.00 | 59 | 1006.1 |
| 20260901145505 | 64 | 230 | 3.0 | 7.0 | 0.00 | 0.00 | 0.00 | 62 | 1021.0 |
| 20260901145005 | 64 | 266 | 3.0 | 5.0 | 0.00 | 0.00 | 0.00 | 64 | 1020.9 |
| 20260901144503 | 63 | 232 | 1.0 | 5.0 | 0.00 | 0.00 | 0.00 | 66 | 1006.2 |
| 20260901144005 | 63 | 240 | 2.0 | 5.0 | 0.00 | 0.00 | 0.00 | 65 | 1021.0 |
| 20260901143505 | 63 | 212 | 2.0 | 6.0 | 0.00 | 0.00 | 0.00 | 65 | 1020.7 |
| 20260901143006 | 63 | 236 | 2.0 | 9.0 | 0.00 | 0.00 | 0.00 | 66 | 1020.7 |
| 20260901143002 | 63 | 236 | 1.0 | 9.0 | 0.00 | 0.00 | 0.00 | 66 | 1006.0 |
| 20260901142506 | 63 | 248 | 3.0 | 9.0 | 0.00 | 0.00 | 0.00 | 65 | 1020.7 |
| 20260901142006 | 62 | 252 | 4.0 | 7.0 | 0.00 | 0.00 | 0.00 | 67 | 1020.6 |
| 20260901141506 | 62 | 246 | 3.0 | 5.0 | 0.00 | 0.00 | 0.00 | 69 | 1020.6 |
| 20260901141503 | 62 | 246 | 2.0 | 5.0 | 0.00 | 0.00 | 0.00 | 69 | 1005.8 |
| 20260901140504 | 62 | 248 | 1.0 | 5.0 | 0.00 | 0.00 | 0.00 | 69 | 1020.6 |
| 20260901140007 | 62 | 248 | 3.0 | 8.0 | 0.00 | 0.00 | 0.00 | 68 | 1020.6 |
| 20260901140002 | 62 | 248 | 2.0 | 8.0 | 0.00 | 0.00 | 0.00 | 68 | 1005.8 |
| 20260901135504 | 62 | 225 | 3.0 | 8.0 | 0.00 | 0.00 | 0.00 | 68 | 1020.6 |
| 20260901135006 | 62 | 230 | 2.0 | 7.0 | 0.00 | 0.00 | 0.00 | 69 | 1020.7 |
| 20260901134505 | 62 | 243 | 3.0 | 7.0 | 0.00 | 0.00 | 0.00 | 68 | 1020.7 |
| 20260901134502 | 62 | 243 | 3.0 | 7.0 | 0.00 | 0.00 | 0.00 | 68 | 1005.9 |
| 20260901133504 | 61 | 255 | 3.0 | 6.0 | 0.00 | 0.00 | 0.00 | 71 | 1020.5 |
| 20260901133005 | 60 | 280 | 2.0 | 6.0 | 0.00 | 0.00 | 0.00 | 73 | 1020.5 |
| 20260901133003 | 60 | 280 | 2.0 | 6.0 | 0.00 | 0.00 | 0.00 | 73 | 1005.6 |
| 20260901132505 | 60 | 238 | 1.0 | 6.0 | 0.00 | 0.00 | 0.00 | 74 | 1020.3 |
| 20260901131505 | 60 | 233 | 3.0 | 7.0 | 0.00 | 0.00 | 0.00 | 76 | 1020.3 |
| 20260901131502 | 60 | 233 | 2.0 | 7.0 | 0.00 | 0.00 | 0.00 | 76 | 1005.4 |
| 20260901131006 | 60 | 223 | 3.0 | 8.0 | 0.00 | 0.00 | 0.00 | 77 | 1020.2 |
| 20260901130505 | 60 | 200 | 4.0 | 8.0 | 0.00 | 0.00 | 0.00 | 77 | 1020.1 |
| 20260901130057 | 60 | 173 | 4.0 | 8.0 | 0.00 | 0.00 | 0.00 | 77 | 1005.2 |
| 20260901130007 | 60 | 227 | 5.0 | 8.0 | 0.00 | 0.00 | 0.00 | 77 | 1020.1 |
| 20260901130003 | 60 | 227 | 4.0 | 8.0 | 0.00 | 0.00 | 0.00 | 77 | 1005.2 |
| 20260901125504 | 59 | 205 | 3.0 | 8.0 | 0.00 | 0.00 | 0.00 | 77 | 1019.9 |
| 20260901125006 | 59 | 196 | 4.0 | 10.0 | 0.00 | 0.00 | 0.00 | 77 | 1019.9 |
| 20260901124505 | 59 | 201 | 4.0 | 10.0 | 0.00 | 0.00 | 0.00 | 77 | 1019.8 |
| 20260901124006 | 59 | 202 | 4.0 | 8.0 | 0.00 | 0.00 | 0.00 | 77 | 1019.9 |
| 20260901123504 | 60 | 209 | 4.0 | 9.0 | 0.00 | 0.00 | 0.00 | 76 | 1019.8 |
| 20260901123006 | 60 | 240 | 4.0 | 9.0 | 0.00 | 0.00 | 0.00 | 76 | 1004.7 |
| 20260901122505 | 60 | 233 | 4.0 | 7.0 | 0.00 | 0.00 | 0.00 | 76 | 1019.6 |
| 20260901122004 | 59 | 265 | 4.0 | 8.0 | 0.00 | 0.00 | 0.00 | 76 | 1019.5 |
| 20260901121502 | 59 | 206 | 3.0 | 7.0 | 0.00 | 0.00 | 0.00 | 77 | 1004.6 |
| 20260901121005 | 59 | 201 | 2.0 | 5.0 | 0.00 | 0.00 | 0.00 | 77 | 1019.4 |
| 20260901120006 | 59 | 234 | 3.0 | 7.0 | 0.00 | 0.00 | 0.00 | 77 | 1019.4 |
| 20260901114504 | 58 | 226 | 3.0 | 5.0 | 0.00 | 0.00 | 0.00 | 79 | 1019.5 |
| 20260901114005 | 58 | 226 | 1.0 | 3.0 | 0.00 | 0.00 | 0.00 | 79 | 1019.5 |
| 20260901113505 | 58 | 226 | 0.0 | 2.0 | 0.00 | 0.00 | 0.00 | 79 | 1019.6 |
| 20260901113006 | 58 | 226 | 0.0 | 6.0 | 0.00 | 0.00 | 0.00 | 79 | 1019.6 |
| 20260901113003 | 58 | 226 | 0.0 | 6.0 | 0.00 | 0.00 | 0.00 | 79 | 1004.8 |
| 20260901112504 | 58 | 173 | 2.0 | 5.0 | 0.00 | 0.00 | 0.00 | 80 | 1019.9 |
| 20260901112006 | 58 | 173 | 3.0 | 5.0 | 0.00 | 0.00 | 0.00 | 80 | 1019.8 |
| 20260901111503 | 58 | 173 | 2.0 | 4.0 | 0.00 | 0.00 | 0.00 | 80 | 1019.9 |
| 20260901111000 | 58 | 173 | 2.0 | 4.0 | 0.00 | 0.00 | 0.00 | 80 | 1019.9 |
| 20260901110003 | 58 | 173 | 1.0 | 4.0 | 0.00 | 0.00 | 0.00 | 80 | 1005.3 |
| 20260901105504 | 58 | 173 | 2.0 | 4.0 | 0.00 | 0.00 | 0.00 | 79 | 1020.1 |
| 20260901104505 | 58 | 173 | 2.0 | 3.0 | 0.00 | 0.00 | 0.00 | 79 | 1020.2 |
| 20260901104502 | 58 | 173 | 1.0 | 3.0 | 0.00 | 0.00 | 0.00 | 79 | 1005.4 |
| 20260901104006 | 58 | 173 | 1.0 | 3.0 | 0.00 | 0.00 | 0.00 | 80 | 1020.3 |
| 20260901103504 | 58 | 173 | 1.0 | 3.0 | 0.00 | 0.00 | 0.00 | 80 | 1020.2 |
| 20260901103005 | 58 | 173 | 0.0 | 2.0 | 0.00 | 0.00 | 0.00 | 80 | 1020.2 |
| 20260901103002 | 58 | 173 | 0.0 | 2.0 | 0.00 | 0.00 | 0.00 | 80 | 1005.4 |